Weather in Iwakuni

Japan     34°09′45″N   132°13′10″E
temp.,
°C
wind,
m/s
gust,
m/s
humid.,
%
clouds,
%
prec.,
mm/h
press.,
hPa
HPBL,
m
25 september, sat
sat2500:00+19n34810 0.0 1021130
03:00+19nne34825 0.0 1021160
06:00+18nne44811 0.0 1021167
09:00+22ne467179 0.0 1022654
12:00+24e3461100 0.0 1021907
15:00+23s1166100 0.0 1020344
18:00+21ssw1177100 0.0 1020110
21:00+20nw228089 0.0 102161
26 september, sun
sun2600:00+20n227982 0.0 102091
03:00+19n2280100 0.0 1019119
06:00+19n2280100 0.0 1020115
09:00+22ne2273100 0.0 1020325
12:00+24e1268100 0.0 1018508
15:00+25sse116381 0.0 1016638
18:00+21sse118155 0.0 101672
21:00+20nnw22845 0.1 101769
27 september, mon
mon2700:00+20n338292 0.0 1016109
03:00+19n33845 0.0 1015145
06:00+19nne34886 0.0 1015172
09:00+22ne347510 0.0 1016571
12:00+24sse22725 0.1 1014607
15:00+24sse21716 0.3 1013560
18:00+21wsw128324 0.6 101448
21:00+21wnw118299 1.1 101539
28 september, tue
tue2800:00+21nw118299 0.1 101460
03:00+21nw118397 0.4 101465
06:00+21nnw1185100 0.1 101495
09:00+23ene117868 0.3 1015419
12:00+23ssw227951 0.1 1014360
15:00+24se117131 0.3 1012582
18:00+21s118425 0.3 101384
21:00+21wnw118674 0.4 101451
29 september, wed
wed2900:00+21wnw118477 0.0 101371
03:00+21nw118474 0.1 101184
06:00+20wnw118621 0.0 101293
09:00+23e117823 0.0 1012554
12:00+23sse337718 0.1 1011687
15:00+25se12630 0.1 1008507
18:00+22ssw12810 0.0 100986
21:00+21w21830 0.0 101054